Tracking 19576 objects as of 17-Feb-2019
HD Live streaming from Space Station
objects crossing your sky now

MOLNIYA 1-75

Track MOLNIYA 1-75 now!
MOLNIYA 1-75 is classified as:


NORAD ID: 19807
Int'l Code: 1989-014A
Perigee: 1,680.2 km
Apogee: 38,700.8 km
Inclination: 64.1 °
Period: 718.0 minutes
Semi major axis: 26561 km
RCS: 12.6191 m2 (large)
Launch date: February 15, 1989
Source: Commonwealth of Independent States (former USSR) (CIS)
Launch site: TYURATAM MISSILE AND SPACE COMPLEX (TTMTR)
aabbcc
Your satellite tracking list
Your tracking list is empty




NASA's NSSDC Master Catalog

Two Line Element Set (TLE):
1 19807U 89014A   19045.34335312  .00000206  00000-0 -85886-2 0  9996
2 19807  64.1122  70.7882 6968828 274.1691  15.7371  2.00550592219635
Source of the keplerian elements: AFSPC